Location: Piolenc
(44.1794°N, 4.7641°E)
Time: 04:27:46
(UTC+00:00)

Cosmos 1464 Rocket - Pass Details

Date: 27 January 2021
Orbit: 953 x 1000 km, 82.9° (Epoch: 27 February)

Event Time Altitude Azimuth Distance (km) Brightness Sun altitude
Exits shadow 04:13:46 71° 155° (SSE) 1,009 4.0 -30.5°
Maximum altitude 04:14:24 80° 96° (E) 975 3.9 -30.4°
Drops below altitude 10° 04:20:35 10° 10° (N) 2,708 6.4 -29.3°
Sets 04:23:06 0° 10° (N) 3,664 7.1 -28.8°
